Location: Champignolles
(47.0543°N, 4.5663°E)
Time: 14:59:50
(UTC+00:00)

Cosmos 1933 - Visible Passes

Search period start: 20 April 2021 00:00
Search period end: 30 April 2021 00:00
Orbit: 547 x 563 km, 82.5° (Epoch: 19 April)

Date Brightness Start Highest point End Pass type
(mag) Time Alt. Az. Time Alt. Az. Time Alt. Az.
20 Apr 6.2 00:29:55 11° NW 00:29:55 11° NW 00:30:16 10° NW visible
20 Apr 5.3 22:51:08 28° NNE 22:51:08 28° NNE 22:53:08 10° N visible
21 Apr 5.1 22:48:09 31° N 22:48:09 31° N 22:50:20 10° N visible
22 Apr 4.9 22:45:09 34° N 22:45:09 34° N 22:47:32 10° N visible
23 Apr 4.8 22:42:08 37° N 22:42:08 37° N 22:44:43 10° N visible
24 Apr 5.8 21:03:18 11° ENE 21:03:18 11° ENE 21:03:47 10° NE visible
24 Apr 4.6 22:39:05 39° NNW 22:39:05 39° NNW 22:41:54 10° N visible
25 Apr 5.6 21:00:14 13° ENE 21:00:14 13° ENE 21:01:18 10° NE visible
25 Apr 4.5 22:36:02 41° NW 22:36:02 41° NW 22:39:05 10° N visible
26 Apr 5.4 20:57:09 15° ENE 20:57:09 15° ENE 20:58:45 10° NE visible
26 Apr 4.5 22:32:57 41° NW 22:32:57 41° NW 22:36:14 10° N visible
27 Apr 5.2 20:54:03 18° ENE 20:54:03 18° ENE 20:56:09 10° NE visible
27 Apr 4.5 22:29:51 39° WNW 22:29:51 39° WNW 22:33:23 10° N visible
28 Apr 4.9 20:50:55 20° ENE 20:50:55 20° ENE 20:53:31 10° NE visible
28 Apr 4.6 22:26:43 35° WNW 22:26:46 35° WNW 22:30:31 10° N visible
29 Apr 4.7 20:47:46 23° E 20:47:46 23° E 20:50:51 10° NE visible
29 Apr 4.8 22:23:33 30° W 22:24:00 31° WNW 22:27:39 10° N visible
